Flag for Russia Weather past 2 weeks in Volgograd, Russia

Now
70 °F

Clear.


Feels Like: 70 °F
Forecast: 62 / 83 °F
Wind: 6 mph from Northwest

Location: Volgograd Airport

Current Time: Jul 1, 2015 at 10:32:15 PM

Latest Report: Jul 1, 2015 at 9:30 PM


Visibility: 10 mi

Pressure: 30.01 "Hg

Humidity: 60%

Dew point: 55 °F

Location of VolgogradLocation

Historic Weather in Volgograd — Graph

°F

Volgograd temperature yesterday

Maximum temperature yesterday: 84 °F (at 1:30 PM)
Minimum temperature yesterday: 61 °F (at 3:30 AM)
Average temperature yesterday: 74 °F

Past Weeks' High & Low Weather Summary

 TemperatureHumidityPressure
High100 °F (Jun 25, 4:00 PM)94% (Jun 29, 2:00 PM)30.01 "Hg (Jun 29, 2:00 PM)
Low61 °F (Jun 30, 3:30 AM)12% (Jun 17, 5:00 PM)29.56 "Hg (Jun 27, 2:30 PM)
Average79 °F49%29.77 "Hg
* Reported Jun 16 9:00 PM — Jul 1 9:30 PM, Volgograd, Weather by CustomWeather, © 2015

Note: Actual official high and low records may vary slightly from our data, if they occured in-between our weather recording intervals... More about our weather records

Advertising

Volgograd weather history for previous 24 hours

 ConditionsComfort  
Time TempWeatherWind HumidityBarometerVisibility
9:30 PM
Wed, Jul 1
70 °FClear.6 mph60%30.01 "Hg10 mi
9:00 PM72 °FClear.6 mph57%29.98 "Hg10 mi
8:30 PM73 °FClear.8 mph53%29.98 "Hg10 mi
8:00 PM75 °FBroken clouds.10 mph50%29.98 "HgN/A
7:30 PM77 °FSunny.10 mph51%29.95 "Hg10 mi
7:00 PM79 °FSunny.10 mph48%29.95 "Hg10 mi
6:30 PM79 °FSunny.15 mph45%29.95 "Hg10 mi
6:00 PM79 °FSunny.15 mph45%29.95 "Hg10 mi
5:30 PM81 °FPartly sunny.13 mph42%29.95 "HgN/A
5:00 PM81 °FPartly sunny.17 mph42%29.95 "HgN/A
4:30 PM81 °FBroken clouds.15 mph42%29.95 "HgN/A
4:00 PM81 °FPartly sunny.17 mph45%29.95 "HgN/A
3:30 PM81 °FPartly sunny.15 mph45%29.92 "HgN/A
3:00 PM81 °FPartly sunny.13 mph45%29.92 "HgN/A
2:30 PM82 °FSunny.15 mph40%29.92 "Hg10 mi
2:00 PM82 °FPassing clouds.20 mph40%29.92 "HgN/A
1:30 PM82 °FSunny.17 mph40%29.92 "Hg10 mi
1:00 PM84 °FSunny.17 mph37%29.92 "Hg10 mi
12:30 PM82 °FSunny.15 mph40%29.92 "Hg10 mi
12:00 PM81 °FSunny.13 mph42%29.92 "Hg10 mi
11:30 AM81 °FSunny.13 mph42%29.92 "Hg10 mi
11:00 AM79 °FPassing clouds.13 mph45%29.92 "HgN/A
10:30 AM79 °FPassing clouds.13 mph42%29.92 "HgN/A
10:00 AM79 °FSunny.17 mph42%29.92 "Hg10 mi
9:30 AM77 °FPassing clouds.15 mph47%29.95 "HgN/A
9:00 AM77 °FSunny.17 mph47%29.95 "Hg10 mi
8:30 AM75 °FPassing clouds.15 mph54%29.95 "HgN/A
8:00 AM75 °FSunny.13 mph54%29.95 "Hg10 mi
7:30 AM73 °FSunny.10 mph61%29.95 "Hg10 mi
6:30 AM70 °FSunny.8 mph73%29.95 "Hg10 mi
5:30 AM64 °FSunny.8 mph88%29.95 "Hg10 mi
5:00 AM64 °FSunny.8 mph88%29.95 "Hg10 mi
4:30 AM64 °FSunny.6 mph83%29.92 "Hg10 mi
4:00 AM66 °FClear.6 mph78%29.92 "Hg10 mi
3:30 AM66 °FPassing clouds.8 mph78%29.92 "HgN/A
3:00 AM66 °FClear.6 mph78%29.92 "Hg10 mi
2:30 AM66 °FClear.8 mph78%29.92 "Hg10 mi
2:00 AM68 °FClear.6 mph73%29.92 "Hg10 mi
1:30 AM68 °FClear.6 mph73%29.92 "Hg10 mi
1:00 AM68 °FClear.10 mph73%29.92 "Hg10 mi
12:30 AM68 °FClear.8 mph73%29.92 "Hg10 mi
12:00 AM70 °FPassing clouds.6 mph69%29.89 "HgN/A
11:30 PM
Tue, Jun 30
72 °FPassing clouds.8 mph65%29.92 "HgN/A
11:00 PM73 °FPassing clouds.13 mph61%29.92 "HgN/A
10:30 PM73 °FPassing clouds.10 mph57%29.92 "HgN/A
10:00 PM77 °FPartly cloudy.8 mph42%29.92 "HgN/A
Weather by CustomWeather, © 2015

See weather overviewHow to use our weather pages